| time (UTC) | temp F | wind direction | speed MPH | gust MPH | rain 1hr in | rain 24hr in | rain mn in | humidity % | barometer mb |
| 20260902005516 | 81 | 293 | 4.0 | 10.0 | 0.02 | 0.02 | 0.02 | 89 | 1015.4 |
| 20260902004516 | 82 | 270 | 1.0 | 2.0 | 0.01 | 0.01 | 0.01 | 90 | 1013.5 |
| 20260902003516 | 83 | 0.0 | 2.0 | 0.01 | 0.01 | 0.01 | 88 | 1012.9 | |
| 20260902002536 | 83 | 270 | 1.0 | 2.0 | 0.00 | 0.00 | 0.00 | 87 | 1012.8 |
| 20260902001516 | 83 | 0.0 | 0.0 | 0.00 | 0.00 | 0.00 | 87 | 1012.9 | |
| 20260902000517 | 84 | 0.0 | 0.0 | 0.00 | 0.00 | 0.00 | 86 | 1013.1 | |
| 20260901235516 | 84 | 0.0 | 0.0 | 0.00 | 0.00 | 0.00 | 84 | 1012.8 | |
| 20260901234516 | 85 | 0.0 | 0.0 | 0.00 | 0.00 | 0.00 | 84 | 1012.5 | |
| 20260901233517 | 86 | 0.0 | 0.0 | 0.00 | 0.00 | 0.00 | 83 | 1012.8 | |
| 20260901232517 | 86 | 0.0 | 0.0 | 0.00 | 0.00 | 0.00 | 82 | 1013.1 | |
| 20260901231536 | 87 | 0.0 | 0.0 | 0.00 | 0.00 | 0.00 | 80 | 1013.1 | |
| 20260901230516 | 88 | 0.0 | 0.0 | 0.00 | 0.00 | 0.00 | 78 | 1013.2 | |
| 20260901225516 | 89 | 0.0 | 0.0 | 0.00 | 0.00 | 0.00 | 76 | 1013.1 | |
| 20260901224517 | 89 | 0.0 | 2.0 | 0.00 | 0.00 | 0.00 | 75 | 1013.4 | |
| 20260901223516 | 89 | 0.0 | 2.0 | 0.00 | 0.00 | 0.00 | 74 | 1013.3 | |
| 20260901222537 | 89 | 0.0 | 2.0 | 0.00 | 0.00 | 0.00 | 74 | 1013.2 | |
| 20260901221536 | 89 | 270 | 2.0 | 3.0 | 0.00 | 0.00 | 0.00 | 73 | 1013.2 |
| 20260901220516 | 89 | 270 | 1.0 | 4.0 | 0.00 | 0.00 | 0.00 | 73 | 1013.2 |
| 20260901215516 | 90 | 293 | 2.0 | 7.0 | 0.00 | 0.00 | 0.00 | 71 | 1013.6 |
| 20260901214516 | 90 | 293 | 3.0 | 8.0 | 0.00 | 0.00 | 0.00 | 71 | 1013.7 |
| 20260901213516 | 90 | 315 | 3.0 | 5.0 | 0.00 | 0.00 | 0.00 | 72 | 1013.6 |
| 20260901212516 | 90 | 270 | 3.0 | 5.0 | 0.00 | 0.00 | 0.00 | 73 | 1013.6 |
| 20260901211536 | 90 | 270 | 3.0 | 9.0 | 0.00 | 0.00 | 0.00 | 71 | 1013.7 |
| 20260901210516 | 91 | 315 | 3.0 | 8.0 | 0.00 | 0.00 | 0.00 | 71 | 1013.6 |
| 20260901205536 | 91 | 270 | 3.0 | 8.0 | 0.00 | 0.00 | 0.00 | 72 | 1013.7 |
| 20260901204516 | 91 | 315 | 4.0 | 10.0 | 0.00 | 0.00 | 0.00 | 71 | 1013.8 |
| 20260901203516 | 91 | 315 | 3.0 | 8.0 | 0.00 | 0.00 | 0.00 | 71 | 1013.8 |
| 20260901202516 | 90 | 315 | 3.0 | 6.0 | 0.00 | 0.00 | 0.00 | 72 | 1013.8 |
| 20260901201516 | 90 | 293 | 3.0 | 8.0 | 0.00 | 0.00 | 0.00 | 72 | 1013.8 |
| 20260901200536 | 90 | 315 | 5.0 | 11.0 | 0.00 | 0.00 | 0.00 | 72 | 1013.7 |
| 20260901195536 | 90 | 315 | 4.0 | 8.0 | 0.00 | 0.00 | 0.00 | 72 | 1013.8 |
| 20260901194516 | 90 | 315 | 4.0 | 9.0 | 0.00 | 0.00 | 0.00 | 73 | 1013.8 |
| 20260901193536 | 90 | 293 | 3.0 | 8.0 | 0.00 | 0.00 | 0.00 | 72 | 1014.1 |
| 20260901192516 | 90 | 293 | 4.0 | 10.0 | 0.00 | 0.00 | 0.00 | 73 | 1014.2 |
| 20260901191516 | 90 | 270 | 4.0 | 9.0 | 0.00 | 0.00 | 0.00 | 73 | 1014.3 |
| 20260901190537 | 89 | 270 | 3.0 | 8.0 | 0.00 | 0.00 | 0.00 | 72 | 1014.2 |
| 20260901185515 | 90 | 293 | 3.0 | 7.0 | 0.00 | 0.00 | 0.00 | 72 | 1014.3 |
| 20260901184516 | 89 | 315 | 3.0 | 9.0 | 0.00 | 0.00 | 0.00 | 74 | 1014.2 |
| 20260901183516 | 89 | 315 | 4.0 | 9.0 | 0.00 | 0.00 | 0.00 | 74 | 1014.3 |
| 20260901182535 | 89 | 315 | 3.0 | 8.0 | 0.00 | 0.00 | 0.00 | 74 | 1014.3 |
| 20260901181516 | 88 | 293 | 3.0 | 7.0 | 0.00 | 0.00 | 0.00 | 76 | 1014.7 |
| 20260901180516 | 88 | 293 | 1.0 | 4.0 | 0.00 | 0.00 | 0.00 | 76 | 1014.9 |
| 20260901175515 | 88 | 315 | 3.0 | 5.0 | 0.00 | 0.00 | 0.00 | 78 | 1014.9 |
| 20260901174536 | 87 | 293 | 3.0 | 5.0 | 0.00 | 0.00 | 0.00 | 83 | 1015.0 |
| 20260901173516 | 86 | 293 | 1.0 | 4.0 | 0.00 | 0.00 | 0.00 | 82 | 1015.0 |
| 20260901172556 | 85 | 293 | 1.0 | 3.0 | 0.00 | 0.00 | 0.00 | 83 | 1014.9 |
| 20260901171516 | 85 | 293 | 1.0 | 3.0 | 0.00 | 0.00 | 0.00 | 84 | 1015.0 |
| 20260901170515 | 85 | 293 | 1.0 | 3.0 | 0.00 | 0.00 | 0.00 | 84 | 1015.3 |
| 20260901165515 | 84 | 293 | 1.0 | 2.0 | 0.00 | 0.00 | 0.00 | 84 | 1015.4 |
| 20260901164515 | 84 | 293 | 2.0 | 4.0 | 0.00 | 0.00 | 0.00 | 84 | 1015.8 |
| 20260901163555 | 84 | 0.0 | 1.0 | 0.00 | 0.00 | 0.00 | 85 | 1015.6 | |
| 20260901162515 | 84 | 293 | 1.0 | 3.0 | 0.00 | 0.00 | 0.00 | 84 | 1015.7 |
| 20260901161518 | 84 | 293 | 1.0 | 2.0 | 0.00 | 0.00 | 0.00 | 84 | 1015.6 |
| 20260901160517 | 84 | 293 | 1.0 | 4.0 | 0.00 | 0.00 | 0.00 | 83 | 1015.6 |
| 20260901155517 | 84 | 293 | 1.0 | 3.0 | 0.00 | 0.00 | 0.00 | 83 | 1015.6 |
| 20260901154518 | 85 | 293 | 1.0 | 4.0 | 0.00 | 0.00 | 0.00 | 82 | 1015.7 |
| 20260901153518 | 84 | 315 | 2.0 | 5.0 | 0.00 | 0.00 | 0.00 | 83 | 1015.8 |
| 20260901152517 | 84 | 315 | 2.0 | 5.0 | 0.00 | 0.00 | 0.00 | 82 | 1015.9 |
| 20260901151517 | 85 | 293 | 3.0 | 8.0 | 0.00 | 0.00 | 0.00 | 84 | 1015.9 |
| 20260901150517 | 83 | 270 | 3.0 | 5.0 | 0.00 | 0.00 | 0.00 | 87 | 1016.0 |
| 20260901145517 | 83 | 293 | 4.0 | 10.0 | 0.00 | 0.00 | 0.00 | 85 | 1016.1 |
| 20260901144517 | 83 | 315 | 2.0 | 4.0 | 0.00 | 0.00 | 0.00 | 87 | 1015.9 |
| 20260901143518 | 82 | 315 | 2.0 | 5.0 | 0.00 | 0.00 | 0.00 | 88 | 1016.0 |
| 20260901142518 | 82 | 315 | 1.0 | 4.0 | 0.00 | 0.00 | 0.00 | 88 | 1015.8 |
| 20260901141517 | 81 | 315 | 3.0 | 7.0 | 0.00 | 0.00 | 0.00 | 87 | 1015.8 |
| 20260901140517 | 81 | 315 | 2.0 | 4.0 | 0.00 | 0.00 | 0.00 | 87 | 1015.5 |
| 20260901135517 | 82 | 315 | 3.0 | 8.0 | 0.00 | 0.00 | 0.00 | 87 | 1015.4 |
| 20260901134517 | 82 | 293 | 2.0 | 4.0 | 0.00 | 0.00 | 0.00 | 88 | 1015.8 |
| 20260901134134 | 81 | 315 | 2.0 | 7.0 | 0.00 | 0.00 | 0.00 | 89 | 1015.9 |